C6542 KACY-KACY

Flight info

Callsign C6542
Flight time 0h 30m
Altitude 1000
Route VFR
Aircraft AS65/L-VGD/C

Departure

Time 2026-05-05 01:44
Airport Atlantic City International Airport (KACY)

Arrival

Time 2026-05-05 02:14
Airport Atlantic City International Airport (KACY)
Time Latitude Longitude Altitude Speed Heading
2026-05-05 01:30 39.44904 -74.56271 75 ft 0 kts 207°
2026-05-05 01:38 39.44899 -74.56272 68 ft 4 kts 158°
2026-05-05 01:38 39.44903 -74.56263 75 ft 0 kts 26°
2026-05-05 01:38 39.44904 -74.56263 75 ft 0 kts
2026-05-05 01:41 39.44903 -74.56253 71 ft 0 kts 137°
2026-05-05 01:44 39.44880 -74.56201 195 ft 26 kts 129°
2026-05-05 01:44 39.44751 -74.55939 410 ft 40 kts 138°
2026-05-05 01:44 39.44667 -74.55528 677 ft 56 kts 99°
2026-05-05 01:45 39.44747 -74.54947 965 ft 80 kts 84°
2026-05-05 01:45 39.44964 -74.54136 1089 ft 113 kts 84°
2026-05-05 01:45 39.45234 -74.52999 1159 ft 150 kts 80°
2026-05-05 01:45 39.45659 -74.51667 1189 ft 168 kts 76°
2026-05-05 01:46 39.46168 -74.50249 1205 ft 176 kts 75°
2026-05-05 01:46 39.46700 -74.48822 1213 ft 175 kts 75°
2026-05-05 01:46 39.47232 -74.47409 1211 ft 176 kts 75°
2026-05-05 01:46 39.47771 -74.45947 1213 ft 183 kts 75°
2026-05-05 01:47 39.48316 -74.44469 1213 ft 181 kts 75°
2026-05-05 01:47 39.48829 -74.42983 1215 ft 180 kts 77°
2026-05-05 01:47 39.49308 -74.41485 1215 ft 180 kts 80°
2026-05-05 01:47 39.49744 -74.39969 1214 ft 180 kts 82°
2026-05-05 01:48 39.50143 -74.38443 1214 ft 178 kts 83°
2026-05-05 01:48 39.50511 -74.36910 1213 ft 179 kts 84°
2026-05-05 01:48 39.50884 -74.35379 1205 ft 178 kts 84°
2026-05-05 01:48 39.51263 -74.33823 1208 ft 184 kts 83°
2026-05-05 01:49 39.51635 -74.32234 1211 ft 183 kts 88°
2026-05-05 01:49 39.51709 -74.30634 1212 ft 177 kts 105°
2026-05-05 01:49 39.51485 -74.29112 1213 ft 169 kts 121°
2026-05-05 01:49 39.51065 -74.27695 1213 ft 169 kts 126°
2026-05-05 01:50 39.50575 -74.26330 1221 ft 165 kts 133°
2026-05-05 01:50 39.49956 -74.25093 1221 ft 162 kts 141°
2026-05-05 01:50 39.49232 -74.23985 1218 ft 161 kts 145°
2026-05-05 01:50 39.48474 -74.22922 1212 ft 160 kts 147°
2026-05-05 01:51 39.47696 -74.21889 1217 ft 160 kts 148°
2026-05-05 01:51 39.46913 -74.20858 1235 ft 161 kts 148°
2026-05-05 01:51 39.46162 -74.19842 1237 ft 149 kts 149°
2026-05-05 01:51 39.45483 -74.18929 1244 ft 131 kts 153°
2026-05-05 01:52 39.44854 -74.18167 1241 ft 116 kts 156°
2026-05-05 01:52 39.44249 -74.17579 1238 ft 106 kts 166°
2026-05-05 01:52 39.43563 -74.17064 1232 ft 118 kts 169°
2026-05-05 01:52 39.42855 -74.16552 1237 ft 113 kts 171°
2026-05-05 01:53 39.42186 -74.16109 1235 ft 107 kts 175°
2026-05-05 01:53 39.41480 -74.15725 1228 ft 113 kts 177°
2026-05-05 01:53 39.40720 -74.15437 1228 ft 114 kts 184°
2026-05-05 01:53 39.39889 -74.15257 1235 ft 123 kts 187°
2026-05-05 01:54 39.39054 -74.15090 1246 ft 118 kts 187°
2026-05-05 01:54 39.38262 -74.14937 1247 ft 113 kts 187°
2026-05-05 01:54 39.37549 -74.14569 1237 ft 111 kts 166°
2026-05-05 01:54 39.36956 -74.13942 1243 ft 109 kts 162°
2026-05-05 01:55 39.36434 -74.13260 1252 ft 103 kts 160°
2026-05-05 01:55 39.35963 -74.12596 1253 ft 98 kts 161°
2026-05-05 01:55 39.35533 -74.11938 1245 ft 93 kts 162°
2026-05-05 01:55 39.35148 -74.11329 1243 ft 84 kts 167°
2026-05-05 01:56 39.34747 -74.10840 1235 ft 74 kts 182°
2026-05-05 01:56 39.34231 -74.10548 1234 ft 92 kts 192°
2026-05-05 01:56 39.33626 -74.10366 1235 ft 86 kts 206°
2026-05-05 01:56 39.33032 -74.10572 1229 ft 97 kts 226°
2026-05-05 01:57 39.32408 -74.10885 1239 ft 94 kts 199°
2026-05-05 01:57 39.31807 -74.10621 1239 ft 93 kts 171°
2026-05-05 01:57 39.31275 -74.10149 1237 ft 97 kts 169°
2026-05-05 01:57 39.30718 -74.09671 1240 ft 94 kts 171°
2026-05-05 01:58 39.30181 -74.09220 1243 ft 91 kts 173°
2026-05-05 01:58 39.29611 -74.08830 1242 ft 93 kts 179°
2026-05-05 01:58 39.29004 -74.08589 1239 ft 84 kts 203°
2026-05-05 01:58 39.28481 -74.08870 1250 ft 87 kts 224°
2026-05-05 01:59 39.27966 -74.09377 1241 ft 96 kts 233°
2026-05-05 01:59 39.27686 -74.10121 1243 ft 100 kts 276°
2026-05-05 01:59 39.27924 -74.11048 1237 ft 114 kts 285°
2026-05-05 01:59 39.28080 -74.12030 1244 ft 110 kts 283°
2026-05-05 02:00 39.28165 -74.12974 1247 ft 99 kts 275°
2026-05-05 02:00 39.28096 -74.13828 1244 ft 95 kts 260°
2026-05-05 02:00 39.27952 -74.14651 1248 ft 92 kts 260°
2026-05-05 02:00 39.27841 -74.15424 1251 ft 85 kts 263°
2026-05-05 02:01 39.27748 -74.16192 1240 ft 92 kts 262°
2026-05-05 02:01 39.27647 -74.17039 1241 ft 98 kts 257°
2026-05-05 02:01 39.27445 -74.17878 1244 ft 99 kts 256°
2026-05-05 02:01 39.27267 -74.18762 1242 ft 104 kts 258°
2026-05-05 02:02 39.27113 -74.19613 1248 ft 92 kts 266°
2026-05-05 02:02 39.27327 -74.20420 1244 ft 104 kts 302°
2026-05-05 02:02 39.27781 -74.21183 1245 ft 106 kts 308°
2026-05-05 02:02 39.28241 -74.21921 1230 ft 106 kts 307°
2026-05-05 02:03 39.28685 -74.22675 1230 ft 105 kts 306°
2026-05-05 02:03 39.29125 -74.23430 1232 ft 105 kts 306°
2026-05-05 02:03 39.29565 -74.24183 1229 ft 105 kts 306°
2026-05-05 02:03 39.30005 -74.24939 1236 ft 105 kts 306°
2026-05-05 02:04 39.30445 -74.25696 1230 ft 105 kts 306°
2026-05-05 02:04 39.30885 -74.26455 1234 ft 106 kts 306°
2026-05-05 02:04 39.31327 -74.27211 1235 ft 105 kts 306°
2026-05-05 02:04 39.31773 -74.27953 1229 ft 104 kts 306°
2026-05-05 02:05 39.32228 -74.28684 1228 ft 105 kts 306°
2026-05-05 02:05 39.32686 -74.29416 1226 ft 105 kts 304°
2026-05-05 02:05 39.33131 -74.30156 1230 ft 104 kts 304°
2026-05-05 02:05 39.33571 -74.30896 1221 ft 104 kts 302°
2026-05-05 02:06 39.33997 -74.31644 1221 ft 103 kts 302°
2026-05-05 02:06 39.34419 -74.32390 1228 ft 103 kts 302°
2026-05-05 02:06 39.34838 -74.33137 1222 ft 102 kts 302°
2026-05-05 02:06 39.35252 -74.33884 1224 ft 102 kts 302°
2026-05-05 02:07 39.35663 -74.34631 1231 ft 102 kts 302°
2026-05-05 02:07 39.36071 -74.35378 1222 ft 102 kts 302°
2026-05-05 02:07 39.36475 -74.36130 1223 ft 104 kts 303°
2026-05-05 02:07 39.36879 -74.36951 1219 ft 110 kts 302°
2026-05-05 02:08 39.37254 -74.37810 1219 ft 109 kts 298°
2026-05-05 02:08 39.37592 -74.38681 1227 ft 108 kts 297°
2026-05-05 02:08 39.37927 -74.39552 1220 ft 108 kts 297°
2026-05-05 02:08 39.38261 -74.40421 1220 ft 108 kts 297°
2026-05-05 02:09 39.38596 -74.41289 1226 ft 108 kts 297°
2026-05-05 02:09 39.38929 -74.42156 1221 ft 107 kts 297°
2026-05-05 02:09 39.39262 -74.43019 1221 ft 107 kts 297°
2026-05-05 02:09 39.39578 -74.43890 1229 ft 106 kts 292°
2026-05-05 02:10 39.39822 -74.44779 1230 ft 104 kts 289°
2026-05-05 02:10 39.40001 -74.45662 1223 ft 99 kts 281°
2026-05-05 02:10 39.40116 -74.46531 1222 ft 98 kts 280°
2026-05-05 02:10 39.40231 -74.47394 1222 ft 98 kts 280°
2026-05-05 02:11 39.40347 -74.48260 1276 ft 99 kts 287°
2026-05-05 02:11 39.40590 -74.49154 1372 ft 111 kts 305°
2026-05-05 02:11 39.41068 -74.49907 1351 ft 107 kts 335°
2026-05-05 02:11 39.41633 -74.50408 1372 ft 87 kts 346°
2026-05-05 02:12 39.42251 -74.50652 1158 ft 102 kts 339°
2026-05-05 02:12 39.43532 -74.51521 966 ft 104 kts 322°
2026-05-05 02:12 39.44081 -74.52122 870 ft 102 kts 313°
2026-05-05 02:13 39.44547 -74.52804 723 ft 99 kts 316°
2026-05-05 02:13 39.45017 -74.53445 621 ft 97 kts 322°
2026-05-05 02:13 39.45508 -74.54028 631 ft 95 kts 328°
2026-05-05 02:13 39.45960 -74.54625 669 ft 93 kts 322°
2026-05-05 02:14 39.46353 -74.55292 721 ft 93 kts 315°
2026-05-05 02:14 39.46586 -74.56057 702 ft 87 kts 283°
2026-05-05 02:14 39.46621 -74.56757 750 ft 66 kts 245°
2026-05-05 02:14 39.46481 -74.57177 719 ft 37 kts 212°
2026-05-05 02:15 39.46282 -74.57324 660 ft 40 kts 192°
2026-05-05 02:15 39.45940 -74.57271 464 ft 57 kts 172°
2026-05-05 02:15 39.45597 -74.57063 230 ft 45 kts 157°
2026-05-05 02:15 39.45432 -74.56839 140 ft 21 kts 149°
2026-05-05 02:16 39.45342 -74.56779 96 ft 10 kts 177°
2026-05-05 02:16 39.45308 -74.56766 86 ft 5 kts 185°
2026-05-05 02:16 39.45293 -74.56761 70 ft 5 kts 193°
2026-05-05 02:16 39.45247 -74.56788 74 ft 12 kts 207°
2026-05-05 02:17 39.45169 -74.56756 74 ft 14 kts 132°
2026-05-05 02:17 39.45132 -74.56675 69 ft 9 kts 119°
2026-05-05 02:17 39.45097 -74.56591 75 ft 12 kts 119°
2026-05-05 02:17 39.45052 -74.56484 75 ft 14 kts 120°
2026-05-05 02:18 39.45006 -74.56388 70 ft 12 kts 131°
2026-05-05 02:18 39.44948 -74.56365 75 ft 7 kts 218°
2026-05-05 02:18 39.44932 -74.56377 69 ft 0 kts 213°
2026-05-05 02:25 39.44931 -74.56377 64 ft 1 kts 212°
2026-05-05 02:25 39.44925 -74.56388 129 ft 2 kts 150°
2026-05-05 02:25 39.44879 -74.56360 286 ft 16 kts 144°
2026-05-05 02:25 39.44724 -74.56233 557 ft 39 kts 139°
2026-05-05 02:26 39.44421 -74.55962 773 ft 66 kts 148°
2026-05-05 02:26 39.43976 -74.55573 833 ft 89 kts 153°
2026-05-05 02:26 39.43391 -74.55080 880 ft 114 kts 152°
2026-05-05 02:26 39.42715 -74.54480 975 ft 118 kts 154°
2026-05-05 02:27 39.42030 -74.53836 985 ft 131 kts 153°
2026-05-05 02:27 39.41296 -74.53139 1016 ft 127 kts 153°
2026-05-05 02:27 39.40635 -74.52465 1017 ft 117 kts 152°
2026-05-05 02:27 39.39998 -74.51801 1021 ft 117 kts 152°
2026-05-05 02:28 39.39466 -74.50985 1020 ft 128 kts 124°
2026-05-05 02:28 39.39257 -74.49861 1023 ft 131 kts 109°
2026-05-05 02:28 39.39499 -74.48656 1023 ft 148 kts 65°
2026-05-05 02:28 39.40169 -74.47660 1026 ft 146 kts 52°
2026-05-05 02:29 39.40900 -74.46751 1027 ft 146 kts 51°
2026-05-05 02:29 39.41684 -74.45910 1023 ft 150 kts 34°
2026-05-05 02:29 39.42648 -74.45410 1030 ft 150 kts 22°
2026-05-05 02:29 39.43679 -74.45326 1028 ft 150 kts 345°
2026-05-05 02:30 39.44608 -74.45803 1033 ft 137 kts 333°
2026-05-05 02:30 39.45427 -74.46329 1027 ft 125 kts 320°
2026-05-05 02:30 39.46017 -74.47080 1025 ft 115 kts 303°
2026-05-05 02:30 39.46514 -74.47888 1025 ft 115 kts 301°
2026-05-05 02:31 39.47000 -74.48705 1026 ft 115 kts 300°
2026-05-05 02:31 39.47487 -74.49524 1026 ft 115 kts 300°
2026-05-05 02:31 39.47974 -74.50343 1026 ft 115 kts 300°
2026-05-05 02:31 39.48240 -74.51255 1026 ft 105 kts 268°
2026-05-05 02:32 39.48453 -74.52158 1029 ft 105 kts 288°
2026-05-05 02:32 39.48726 -74.52984 1024 ft 95 kts 268°
2026-05-05 02:32 39.48601 -74.53756 1026 ft 85 kts 239°
2026-05-05 02:32 39.48350 -74.54422 1032 ft 76 kts 237°
2026-05-05 02:33 39.48171 -74.54950 1027 ft 56 kts 236°
2026-05-05 02:33 39.48031 -74.55456 1048 ft 66 kts 236°
2026-05-05 02:33 39.47816 -74.56025 1132 ft 71 kts 233°
2026-05-05 02:33 39.47548 -74.56584 846 ft 77 kts 228°
2026-05-05 02:34 39.47119 -74.57093 553 ft 89 kts 217°
2026-05-05 02:34 39.46627 -74.57513 368 ft 76 kts 210°
2026-05-05 02:34 39.46229 -74.57722 230 ft 48 kts 203°
2026-05-05 02:34 39.46014 -74.57793 160 ft 17 kts 212°
2026-05-05 02:35 39.45958 -74.57830 134 ft 10 kts 214°
2026-05-05 02:35 39.45895 -74.57873 137 ft 9 kts 215°
2026-05-05 02:35 39.45822 -74.57897 143 ft 14 kts 189°
2026-05-05 02:35 39.45726 -74.57783 168 ft 26 kts 126°
2026-05-05 02:36 39.45655 -74.57551 182 ft 27 kts 127°
2026-05-05 02:36 39.45563 -74.57362 197 ft 24 kts 135°
2026-05-05 02:36 39.45468 -74.57177 160 ft 26 kts 129°
2026-05-05 02:36 39.45392 -74.56973 116 ft 22 kts 128°
2026-05-05 02:37 39.45336 -74.56839 80 ft 9 kts 125°
2026-05-05 02:37 39.45330 -74.56826 70 ft 0 kts 107°
2026-05-05 02:37 39.45325 -74.56809 73 ft 6 kts 114°
2026-05-05 02:37 39.45274 -74.56771 74 ft 11 kts 205°
2026-05-05 02:38 39.45217 -74.56802 74 ft 7 kts 203°
2026-05-05 02:38 39.45166 -74.56760 74 ft 13 kts 124°
2026-05-05 02:38 39.45104 -74.56644 74 ft 15 kts 120°
2026-05-05 02:38 39.45056 -74.56539 75 ft 12 kts 119°
2026-05-05 02:39 39.45025 -74.56464 75 ft 7 kts 116°
2026-05-05 02:39 39.44997 -74.56398 71 ft 11 kts 117°
2026-05-05 02:39 39.44944 -74.56378 69 ft 7 kts 208°
2026-05-05 02:39 39.44938 -74.56382 75 ft 0 kts 211°